Weather History for Bellingham, WA

Change the Weather History Date:

Wednesday, June 12, 2013

  Actual Average Record
Temperature  
Mean Temperature 59 °F 58 °F  
Max Temperature 65 °F 66 °F 84 °F (1999)
Min Temperature 52 °F 50 °F 41 °F (1970)
Degree Days  
Heating Degree Days 6 7  
Month to date heating degree days 73 91  
Since 1 June heating degree days 73 91  
Cooling Degree Days 0 0  
Month to date cooling degree days 0 0  
Year to date cooling degree days 0 0  
Since 1 June cooling degree days 0 0  
Growing Degree Days 8 (Base 50)    
Moisture  
Dew Point 49 °F    
Average Humidity 73    
Maximum Humidity 89    
Minimum Humidity 56    
Precipitation  
Precipitation 0.13 in 0.06 in 0.63 in (1978)
Month to date precipitation 0.13 0.85  
Year to date precipitation 13.37 16.93  
Sea Level Pressure  
Sea Level Pressure 30.14 in    
Wind  
Wind Speed 5 mph (SSE)    
Max Wind Speed 13 mph    
Max Gust Speed 17 mph    
Visibility 10 miles    
Events Rain    
T = Trace of Precipitation, MM = Missing Value Source: NWS Daily Summary

Daily Weather History Graph

Daily Weather History Graph

Search for Another Location

Airport:

Trip Planner

Search our weather history database for the weather conditions in past years. The results will help you decide how hot, cold, wet, or windy it might be!

Date:

Astronomy

Jun. 12, 2013 Rise Set
Actual Time 5:06 AM PDT 9:13 PM PDT
Civil Twilight 4:24 AM PDT 9:56 PM PDT
Nautical Twilight 3:24 AM PDT 10:56 PM PDT
Astronomical Twilight 1:20 AM PDT 12:37 AM PDT
Moon 9:06 AM PDT (6/12) 11:33 PM PDT (6/12)
Length of Visible Light 17h 31m
Length of Day
16h 07m
Waxing Crescent, 15% of the Moon is Illuminated
Jun 12
Waxing Crescent
Jun 16
First Quarter
Jun 23
Full
Jun 29
Last Quarter
Jul 8
New

Hourly Weather History & Observations

Time (PDT) Temp. Dew Point Humidity Pressure Visibility Wind Dir Wind Speed Gust Speed Precip Events Conditions
12:53 AM 55.9 °F 48.9 °F 77% 30.11 in 10.0 mi South 4.6 mph - N/A   Overcast
1:53 AM 55.9 °F 48.0 °F 75% 30.11 in 10.0 mi SSE 4.6 mph - N/A   Overcast
2:53 AM 55.0 °F 48.0 °F 77% 30.12 in 10.0 mi SE 6.9 mph - 0.00 in Rain Light Rain
3:53 AM 54.0 °F 48.0 °F 80% 30.12 in 10.0 mi Variable 4.6 mph - 0.00 in Rain Light Rain
4:38 AM 51.8 °F 48.2 °F 88% 30.11 in 7.0 mi SSE 5.8 mph - 0.13 in Rain Light Rain
4:49 AM 53.6 °F 48.2 °F 82% 30.11 in 10.0 mi SSE 6.9 mph - 0.13 in Rain Light Rain
4:53 AM 52.0 °F 48.9 °F 89% 30.13 in 10.0 mi SSE 6.9 mph - 0.13 in   Overcast
5:18 AM 53.6 °F 48.2 °F 82% 30.11 in 10.0 mi SSE 6.9 mph - N/A   Overcast
5:53 AM 53.1 °F 48.9 °F 86% 30.13 in 10.0 mi SSE 8.1 mph - N/A   Overcast
6:53 AM 52.0 °F 48.9 °F 89% 30.14 in 10.0 mi Calm Calm - N/A   Scattered Clouds
7:53 AM 55.0 °F 48.9 °F 80% 30.14 in 10.0 mi South 6.9 mph - N/A   Mostly Cloudy
8:41 AM 55.4 °F 48.2 °F 77% 30.12 in 10.0 mi South 10.4 mph 16.1 mph N/A   Overcast
8:50 AM 55.4 °F 48.2 °F 77% 30.12 in 10.0 mi South 9.2 mph - N/A   Overcast
8:53 AM 55.9 °F 48.0 °F 75% 30.14 in 10.0 mi South 9.2 mph - N/A   Overcast
9:53 AM 55.9 °F 48.9 °F 77% 30.15 in 10.0 mi South 6.9 mph - N/A   Overcast
10:53 AM 57.9 °F 50.0 °F 75% 30.16 in 10.0 mi Variable 3.5 mph - 0.00 in   Overcast
11:53 AM 57.9 °F 46.9 °F 67% 30.15 in 10.0 mi Variable 6.9 mph - N/A   Overcast
12:53 PM 61.0 °F 48.0 °F 62% 30.15 in 10.0 mi South 6.9 mph - N/A   Clear
1:53 PM 63.0 °F 46.0 °F 54% 30.15 in 10.0 mi SSW 5.8 mph - N/A   Overcast
2:53 PM 62.1 °F 51.1 °F 67% 30.15 in 10.0 mi North 10.4 mph - N/A   Overcast
3:39 PM 57.2 °F 51.8 °F 82% 30.13 in 10.0 mi North 10.4 mph - N/A   Overcast
3:53 PM 57.9 °F 51.1 °F 78% 30.16 in 10.0 mi North 4.6 mph - N/A   Overcast
4:53 PM 62.1 °F 50.0 °F 65% 30.15 in 10.0 mi NNE 6.9 mph - N/A   Mostly Cloudy
5:53 PM 64.0 °F 48.0 °F 56% 30.14 in 10.0 mi Variable 3.5 mph - N/A   Mostly Cloudy
6:53 PM 63.0 °F 46.0 °F 54% 30.13 in 10.0 mi Calm Calm - N/A   Mostly Cloudy
7:53 PM 63.0 °F 46.0 °F 54% 30.13 in 10.0 mi Calm Calm - N/A   Mostly Cloudy
8:53 PM 57.9 °F 50.0 °F 75% 30.14 in 10.0 mi Calm Calm - N/A   Mostly Cloudy
9:53 PM 54.0 °F 50.0 °F 86% 30.15 in 10.0 mi SSW 3.5 mph - N/A   Clear
10:53 PM 52.0 °F 48.0 °F 86% 30.16 in 10.0 mi South 3.5 mph - N/A   Clear
11:53 PM 54.0 °F 50.0 °F 86% 30.16 in 10.0 mi South 4.6 mph - N/A   Mostly Cloudy